Yellow Mule RAWS (NWS)

Elevation
9200ft
Aggregated by Synoptic Data
Date/Time Wind Direction Wind Speed knots Wind Gust knots RH % Accumulated Precip Inches Air Temp Fahrenheit
2024-05-27 23:04 SW 3 4 46 3.73 44
2024-05-27 22:04 W 4 8 45 3.73 45
2024-05-27 21:04 WSW 3 5 45 3.73 45
2024-05-27 20:04 SW 4 12 43 3.73 47
2024-05-27 19:04 SSW 9 16 41 3.73 48
2024-05-27 18:04 SW 10 18 40 3.73 48
2024-05-27 17:04 SW 10 18 38 3.73 48
2024-05-27 16:04 SW 9 19 38 3.73 49
2024-05-27 15:04 SSW 11 18 44 3.73 48
2024-05-27 14:04 SW 9 18 46 3.73 46
2024-05-27 13:04 SSW 10 17 45 3.73 45
2024-05-27 12:04 SW 10 15 48 3.73 44
2024-05-27 11:04 SW 9 13 45 3.73 45
2024-05-27 10:04 WSW 8 13 49 3.73 45
2024-05-27 09:04 SW 8 10 56 3.73 40
2024-05-27 08:04 SW 5 12 65 3.73 35
2024-05-27 07:04 SW 6 10 69 3.73 33
2024-05-27 06:04 WSW 8 17 73 3.73 30
2024-05-27 05:04 WSW 10 14 70 3.73 30
2024-05-27 04:04 W 7 12 65 3.73 31
2024-05-27 03:04 WNW 6 11 61 3.73 32
2024-05-27 02:04 W 9 15 61 3.73 32
2024-05-27 01:04 WSW 6 21 59 3.73 33
2024-05-27 00:04 SW 14 17 59 3.73 33
2024-05-26 23:04 SW 11 19 58 3.73 34
2024-05-26 22:04 SW 14 21 58 3.73 34
2024-05-26 21:04 SW 16 22 57 3.73 36
2024-05-26 20:04 SW 9 24 50 3.73 37
2024-05-26 19:04 SSW 15 22 49 3.73 38
2024-05-26 18:04 SW 11 22 46 3.73 41
2024-05-26 17:04 SSW 13 31 45 3.73 41
2024-05-26 16:04 SW 18 30 46 3.73 40
2024-05-26 15:04 SW 20 31 46 3.73 40
2024-05-26 14:04 SSW 18 33 54 3.73 38
2024-05-26 13:04 SSW 17 30 58 3.73 37
2024-05-26 12:04 SW 20 31 64 3.73 35
2024-05-26 11:04 SSW 22 32 59 3.73 35
2024-05-26 10:04 SSW 17 28 73 3.73 31
2024-05-26 09:04 SSW 18 34 74 3.72 32
2024-05-26 08:04 SSW 20 29 90 3.71 27
2024-05-26 07:04 SSW 17 23 90 3.71 28
2024-05-26 06:04 SW 11 20 94 3.71 27
2024-05-26 05:04 SW 10 20 100 3.71 28
2024-05-26 04:04 SW 12 17 96 3.71 29
2024-05-26 03:04 SSW 11 17 97 3.71 29
2024-05-26 02:04 SW 12 17 98 3.71 30
2024-05-26 01:04 SSW 13 20 100 3.71 30
2024-05-26 00:04 SSW 10 17 100 3.71 31
2024-05-25 23:04 SSW 10 15 98 3.71 32